Regional Weather Roundup
Issued by NWS Green Bay, WI

Home | Current Version | Previous Version | Text Only | Print | Product List | Glossary On
Versions: 1 2 3 4 5 6 7 8 9 10 11 12 13 14 15 16 17 18 19 20 21 22 23 24 25 26 27 28 29 30 31 32 33 34 35 36 37 38 39 40 41 42 43 44 45 46 47 48 49 50
000
ASUS43 KGRB 291411
RWRGRB

NORTH-CENTRAL AND NORTHEAST WISCONSIN REGIONAL WEATHER ROUNDUP
NATIONAL WEATHER SERVICE GREEN BAY WI
900 AM CDT MON MAY 29 2017

WIZ005-009-010>012-018-019-291500-
NORTH CENTRAL WISCONSIN

CITY           SKY/WX    TMP DP  RH WIND       PRES   REMARKS
IRONWOOD       CLOUDY    54  50  86 W10       29.63S
MANITOWISH WTR CLOUDY    51  51 100 W7        29.66R
ARBOR VITAE    CLOUDY    52  49  92 SW9       29.67R
EAGLE RIVER    CLOUDY    51  49  93 W9        29.67R
LAND O LAKES   CLOUDY    51  49  92 W5        29.66R
RHINELANDER    CLOUDY    53  48  83 W14       29.68R
PHILLIPS       CLOUDY    50  49  96 SW5       29.68S
ANTIGO         CLOUDY    54  49  85 W13       29.69S
TOMAHAWK       CLOUDY    51  47  84 W7        29.70R
MERRILL        CLOUDY    52  49  89 W10       29.71R
$$

WIZ013-073-291500-
NORTHEAST WISCONSIN

CITY           SKY/WX    TMP DP  RH WIND       PRES   REMARKS
IRON MOUNTAIN  PTSUNNY   59  49  69 W8        29.62F
MARINETTE      NOT AVBL
OCONTO         CLOUDY    60  50  70 W7        29.66S
$$

WIZ017-030-035>037-045-291500-
CENTRAL WISCONSIN

CITY           SKY/WX    TMP DP  RH WIND       PRES   REMARKS
MEDFORD        CLOUDY    51  48  91 W8        29.71S
WAUSAU         CLOUDY    53  49  86 W13       29.70S
MOSINEE        CLOUDY    54  50  87 W10G17    29.73R
MARSHFIELD     CLOUDY    52  49  89 W10       29.72S
WISC RAPIDS    LGT RAIN  52  50  93 W7        29.75R
STEVENS POINT  CLOUDY    53  47  82 W13G18    29.73R
WAUPACA        PTSUNNY   60  49  65 W15       29.72S
SHAWANO        SUNNY     62  51  66 SW10      29.69S
CLINTONVILLE   PTSUNNY   59  46  63 W12       29.70R
WAUTOMA        MOSUNNY   60  49  66 W21       29.73F
$$

WIZ038-039-048-051-291500-
FOX VALLEY

CITY           SKY/WX    TMP DP  RH WIND       PRES   REMARKS
NWS GREEN BAY  SUNNY     62  52  69 W16       29.69S
APPLETON       MOSUNNY   61  45  55 SW14      29.69F
OSHKOSH        SUNNY     61  48  62 W12G23    29.71F
FOND DU LAC    SUNNY     62  45  53 W10G24    29.73S
$$

WIZ022-050-052-291500-
EAST CENTRAL WISCONSIN

CITY           SKY/WX    TMP DP  RH WIND       PRES   REMARKS
EPHRAIM        FAIR     N/A N/A N/A SW7       29.65F
WASHINGTON ISL FAIR      56  49  77 SW13G18   29.65S
STURGEON BAY   SUNNY     61  49  64 W16       29.67F
MANITOWOC      SUNNY     63  47  55 W17G24    29.69F
SHEBOYGAN      SUNNY     63  49  60 W22G31    29.70F
$$

LMZ563-521-522-541>543-291500-
LAKESHORE

STATION/POSITION TIME  TEMP    WIND        PRES    VSBY  WAVE
                       AIR SEA DIR/SP/G                  HT/PER
                 (UTC) (F)     (DEG/KT/KT) (MB)    (MI)  (FT/S)
SHEBOYGAN LKSHOR 1400   63     250/ 17/ 21 1005.2F
KEWAUNEE LKSHORE 1342   62     260/  7/ 11 1004.6F
NORTHPORT PIER   1340   60     270/  2/ 10 1004.1F
N MID LAKE BUOY  1350   45 41  200/ 10/ 10 1005.1          1/ 4
CHAMBERS ISLAND  1340   58     190/  7/ 11 1004.1S
MENOMINEE LKSHOR 1336          240/  9/ 14 1003.5F
$$



USA.gov is the U.S. government's official web portal to all federal, state and local government web resources and services.